Location: Vancouver
(49.2500°N, 123.1333°W)
Time: 16:47:46
(UTC-08:00)

Daily predictions for brighter satellites

Satellite Brightness Start Highest point End
(mag) Time Altitude Azimuth Time Altitude Azimuth Time Altitude Azimuth
Cosmos 1844 4.2 17:13:50 10° NNW 17:19:11 38° NE 17:24:33 10° ESE
Cosmos 1408 Rocket 4.2 17:15:26 10° SSE 17:19:30 36° E 17:23:35 10° NNE
CZ-4 R/B 1.2 17:16:13 10° SSE 17:20:05 76° ENE 17:23:59 10° N
Lacrosse 5 rocket 2.2 17:19:41 10° NW 17:22:58 29° NNE 17:26:21 10° ENE
USA 116 3.9 17:19:51 10° NNE 17:23:03 35° E 17:25:59 10° SSE
CENTAUR R/B 3.4 17:19:28 10° S 17:24:43 30° ESE 17:30:31 10° NE
Cosmos 1570 Rocket 4.4 17:21:14 10° SSW 17:26:35 72° WNW 17:31:57 10° NNE
Cosmos 1674 3.8 17:24:15 10° SE 17:27:25 26° E 17:30:39 10° NNE
Okean 3 Rocket 3.6 17:24:02 10° S 17:28:29 89° WNW 17:33:00 10° N
Tsikada Rocket 4.3 17:23:46 10° SSE 17:29:51 49° E 17:35:59 10° NNE
Cosmos 1174 3.2 17:27:22 10° SW 17:30:20 80° NW 17:33:32 10° NE
COSMOS 2428 3.6 17:26:05 10° SSE 17:31:01 31° ESE 17:35:58 10° NE
MOS 1 4.3 17:25:28 10° SSE 17:31:07 82° ENE 17:36:49 10° NNW
Cosmos 2285 Rocket 4.3 17:25:20 10° SSW 17:31:38 72° WNW 17:38:01 10° NNE
Abrixas rocket 4.2 17:29:19 10° W 17:32:16 30° SSW 17:35:13 10° SE
ALOS 3.9 17:33:28 10° E 17:35:42 13° NE 17:37:57 10° NNE
Cosmos 1300 4.1 17:33:26 10° NNE 17:36:14 19° ENE 17:39:02 10° ESE
Meteor 2-2 Rocket 4.5 17:32:50 10° N 17:38:19 47° ENE 17:43:43 10° SE
Cosmos 1743 Rocket 4.4 17:36:12 10° SSE 17:40:05 30° E 17:44:00 10° NNE
Cosmos 2237 Rocket 3.9 17:38:04 10° ESE 17:40:27 13° E 17:42:11 11° ENE
CZ-4 R/B 4.4 17:36:48 10° SSE 17:40:56 70° ENE 17:45:04 10° N
Lacrosse 5 1.9 17:36:54 10° SW 17:42:01 88° NW 17:46:46 12° NE
AQUARIUS 4.3 17:37:33 10° S 17:42:03 79° WSW 17:46:35 10° NNW
CZ-2C R/B 2.8 17:38:13 10° S 17:43:14 71° WSW 17:48:07 10° NNW
Cosmos 1328 Rocket 3.8 17:39:16 10° N 17:43:35 49° ENE 17:47:53 10° SSE
CZ-4C R/B 3.8 17:38:56 10° WNW 17:43:53 27° NNW 17:49:25 10° NE
Cosmos 1515 Rocket 4.0 17:43:52 10° N 17:48:08 42° ENE 17:52:22 10° SE
Cosmos 1763 Rocket 4.0 17:43:22 10° S 17:48:10 38° ESE 17:52:55 10° NE
SKYMED 2 4.3 17:45:46 10° NNE 17:49:43 33° E 17:53:38 10° SSE
Cosmos 1726 3.1 17:46:38 10° NNE 17:49:49 25° ENE 17:52:59 10° SE
Cosmos 1634 Rocket 4.1 17:50:16 10° N 17:56:22 54° ENE 18:02:23 10° SSE
SMAP 3.8 17:53:53 10° S 17:58:27 56° W 18:03:04 10° NNW
NOAA 12 4.4 17:53:58 10° SE 17:58:50 41° ENE 18:03:45 10° N
Cosmos 2322 3.7 17:54:10 10° SSW 17:59:51 88° ESE 18:05:37 10° NNE
Thor Agena Rocket 3.5 17:55:17 10° NNE 18:00:36 81° ESE 18:05:49 10° SSW
SJ-6B 3.7 17:57:50 10° SE 18:01:22 29° ENE 18:04:56 10° N
Meteor 1-28 Rocket 4.1 17:59:54 15° NE 18:02:14 28° E 18:05:26 10° SSE
SPOT 3 Rocket 4.2 17:57:50 10° S 18:02:55 59° WSW 18:08:03 10° NNW
Orbus 7S? 4.3 18:02:36 10° NW 18:05:38 35° NNE 18:08:51 19° E
Cosmos 1151 Rocket 3.3 18:01:58 10° N 18:06:04 42° ENE 18:10:08 10° SSE
Cosmos 2151 3.9 18:03:53 10° SE 18:07:21 25° E 18:09:03 20° NE
Cosmos 1500 Rocket 4.0 18:03:41 10° SSE 18:07:42 39° E 18:11:47 10° NNE
SL-16 R/B 3.5 18:03:18 10° WSW 18:08:31 37° NW 18:13:47 10° NNE
Cosmos 1844 Rocket 2.8 18:06:33 10° NNW 18:12:16 81° WSW 18:17:54 10° SSE
Meteor 1-21 Rocket 4.3 18:06:26 10° S 18:12:22 87° E 18:18:16 10° NNE
Cosmos 1076 Rocket 4.3 18:08:32 10° SSW 18:12:41 52° WNW 18:16:52 10° N
Cosmos 2333 4.3 18:08:54 10° S 18:14:20 55° ESE 18:18:52 15° NE
Cosmos 1125 Rocket 3.5 18:09:17 10° NNW 18:14:27 58° ENE 18:19:34 10° SE
IDEFIX/ARIANE 42P 4.1 18:10:14 10° SSW 18:15:05 39° W 18:20:01 10° NNW
Cosmos 1814 Rocket 4.1 18:12:26 10° SSW 18:17:48 88° WNW 18:23:12 10° NNE
Resurs 01 Rocket 2.4 18:23:00 25° E 18:24:17 30° ENE 18:28:09 10° N
USA 215 3.8 18:18:45 10° SE 18:25:13 60° SW 18:31:43 10° WNW
ATLAS 3B R/B 4.1 18:19:40 10° WNW 18:25:57 29° NNW 18:31:00 14° NE
CZ-3A R/B 2.7 18:20:25 10° WNW 18:26:15 80° NNE 18:29:46 18° ESE
Cosmos 1980 4.4 18:21:42 10° SSE 18:26:39 32° ESE 18:28:28 26° ENE
Cosmos 2360 Rocket 2.8 18:21:56 10° SW 18:27:27 56° NW 18:33:00 10° NNE
Cosmos 1980 Rocket 4.5 18:26:01 10° WNW 18:29:15 15° NNW 18:32:31 10° N
Spot 2 Rocket 3.9 18:27:19 10° SE 18:31:57 38° ENE 18:36:35 10° N
Cosmos 2333 Rocket 2.6 18:29:23 10° S 18:34:40 42° ESE 18:36:58 29° ENE
NOSS 3-2 (A) 4.5 18:29:12 10° WSW 18:35:11 43° NNW 18:40:30 16° NE
Cosmos 2228 Rocket 4.1 18:32:11 10° NNW 18:36:26 48° W 18:40:41 10° SSW
Meteor 1-27 4.2 18:31:12 10° N 18:36:58 64° ENE 18:42:44 10° SSE
NOSS 3-2 (C) 4.3 18:31:43 10° WSW 18:37:46 48° NW 18:43:01 17° NE
COSMO-SKYMED 1 2.6 18:33:30 10° NNE 18:37:53 85° WNW 18:42:14 10° SSW
Cosmos 841 Rocket 3.4 18:34:48 10° SSW 18:40:04 83° ESE 18:44:09 17° NNE
NOSS 0 Rocket 4.2 18:34:56 10° S 18:40:48 45° ESE 18:43:28 29° ENE
Transit 2A Rocket 4.5 18:37:24 10° NNW 18:41:47 59° NE 18:43:08 39° ESE
Molniya-1 4.3 18:40:13 10° SSW 18:43:17 65° SE 18:44:41 41° ENE
SL-14 R/B 3.2 18:41:57 10° S 18:45:47 60° E 18:46:31 49° NE
FENGYUN 3A 3.7 18:41:55 10° SE 18:47:05 52° ENE 18:52:18 10° N
Cosmos 332 Rocket 3.7 18:43:48 10° SSW 18:48:37 85° ESE 18:51:25 26° NNE
Cosmos 2279 Rocket 3.9 18:44:49 10° N 18:51:04 79° E 18:57:17 10° SSE
ATLAS 5 CENTAUR R/B 3.8 18:49:02 10° NW 18:52:55 19° N 18:54:12 18° NNE
Cosmos 2278 Rocket 2.2 18:47:58 10° NNW 18:53:42 84° WSW 18:59:23 10° SSE
Cosmos 2084 4.3 18:50:13 10° S 18:52:44 29° SSE 18:52:44 29° SSE
Cosmos 546 4.5 18:50:15 10° WNW 18:54:10 77° N 18:54:30 70° ENE
Cosmos 2322 Rocket 4.3 18:50:27 10° W 18:54:40 21° NW 18:58:53 10° N
Cosmos 2219 Rocket 2.1 18:50:05 10° SSW 18:55:43 75° ESE 18:58:28 31° NE
Lacrosse 4 Rocket 3.5 18:55:26 10° N 18:56:29 14° N 18:56:29 14° N
Lacrosse 5 rocket 1.0 18:58:46 10° NW 19:02:28 84° N 19:02:28 84° N
METEOR-M 4.4 18:58:56 10° S 19:04:16 68° WSW 19:09:38 10° NNW
Cosmos 836 Rocket 4.4 18:59:37 10° SSW 19:04:52 87° ESE 19:07:13 34° NNE
Cosmos 2180 Rocket 4.3 18:58:44 10° N 19:04:56 83° E 19:11:07 10° S
Meteor 2-10 4.0 19:00:38 10° NNW 19:05:42 81° W 19:10:50 10° S
Cosmos 1300 4.1 19:08:33 10° NNW 19:12:10 39° W 19:15:44 10° SSW
ALOS 2.1 19:07:45 10° SSE 19:12:25 83° ENE 19:17:07 10° NNW
Cosmos 1943 Rocket 4.3 19:10:58 10° N 19:11:54 12° NNE 19:11:54 12° NNE
CENTAUR R/B 2.8 19:08:33 10° SW 19:14:48 69° NW 19:18:21 31° NNE
COSMOS 2428 3.4 19:09:29 10° SW 19:15:04 52° NW 19:18:45 21° NNE
Nadezhda 4 Rocket 4.0 19:10:40 10° SSE 19:25:13 - NNE 19:16:28 52° E
Cosmos 44 3.8 19:13:46 10° SSW 19:17:58 46° SSE 19:17:58 46° SSE
Cosmos 371 Rocket 3.5 19:15:13 10° SSW 19:20:00 70° WNW 19:21:19 47° N
Cosmos 2237 Rocket 2.0 19:17:54 10° SSW 19:23:31 76° ESE 19:24:04 69° ENE
Cosmos 1726 4.3 19:21:54 10° NNW 19:25:08 27° W 19:28:21 10° SSW
Lacrosse 5 2.7 19:20:43 10° W 19:25:29 39° NNW 19:25:59 38° N
Cosmos 2369 Rocket 3.9 19:21:54 10° N 19:24:13 19° N 19:24:13 19° N
DNEPR-1 R/B 4.2 19:19:42 10° SSW 19:26:27 82° SE 19:27:17 67° ENE
SL-16 R/B 3.8 19:21:38 10° S 19:23:27 20° SSE 19:23:27 20° SSE
Cosmos 2058 3.4 19:24:36 10° SSW 19:28:10 56° WSW 19:28:10 56° WSW
Cosmos 2297 3.6 19:24:42 10° NNW 19:30:27 88° WSW 19:31:34 60° SSE
CZ-4C R/B 3.9 19:29:24 10° NW 19:34:33 25° N 19:35:01 25° NNE
Cosmos 44 Rocket 3.5 19:33:14 10° SW 19:37:59 73° WSW 19:37:59 73° WSW
Cosmos 540 Rocket 4.1 19:50:45 10° SW 19:55:42 54° WNW 19:55:42 54° WNW
Resurs 01 Rocket 3.1 20:00:34 35° W 20:00:41 35° W 20:04:48 10° NNW
Cosmos 1980 4.4 20:05:01 10° SW 20:10:23 50° WNW 20:10:23 50° WNW
ATLAS 3B R/B 4.2 20:13:05 10° NW 20:18:16 26° N 20:18:16 26° N
Cosmos 2333 Rocket 3.3 20:13:42 10° WSW 20:18:59 39° NW 20:19:01 39° NW
ATLAS 5 CENTAUR R/B 4.3 20:34:08 10° NW 20:35:46 18° NNW 20:35:46 18° NNW
Cosmos 2219 Rocket 4.0 20:35:39 10° W 20:40:14 25° NW 20:40:14 25° NW
CENTAUR R/B 4.2 21:00:56 10° WNW 21:05:33 29° NW 21:05:33 29° NW
Cosmos 2237 Rocket 4.5 21:03:36 10° W 21:05:58 20° WNW 21:05:58 20° WNW
